TITAN 3C TRANSTAGE DEB, 5991

Orbit data source: Space-Track

TITAN 3C TRANSTAGE DEB, 5991 is space debris in HEO originally from a launch on Tue, 21 Dec 1965 UTC launched from the Air Force Eastern Test Range (AFETR). Debris objects in space refer to the collection of defunct objects orbiting the Earth. Examples of debris include non-operational satellites, rocket bodies, and fragments generated from explosions, collisions, or faulty payload assembly.

Loading next visibility...
Identifier
5991, 1965-108R
Orbit
HEO
Country
Flag of USUS
Related business
Manufacturer
Unknown
Mission
Spacecraft
Bus & Motor
Unknown
Mass
Unknown
Launch date (UTC)
1965-12-21 (60 years ago)
Launch vehicle
Unknown
Launch site
Air Force Eastern Test Range (AFETR)
Object type
Payload
Rocket body
Debris
Shape & HBR
Unknown shape, 0.3 m
Radar Cross Section
Medium (>0.1 m² and <1 m²)

Expand to show TLE details & history
Last TLE update: 2 days ago

TLE from 2 days ago
0 TITAN 3C TRANSTAGE DEB
1  5991U 65108R   25341.26344937 -.00000161  00000-0  00000+0 0  9995
2  5991  27.9738 334.2376 6547335 105.9031   0.8241  2.63552125112350
Epoch: 2025-12-07T06:19Z
TLE epoch observation values (Epoch: 2025-12-07T06:19:22.025Z)
Latitude
26.0242°
Longitude
-83.01262°
Altitude
1,254.864 km
Speed
9.3 km/s
True Right ascension
05h 52m 26s
True Declination
25° 53' 52"
Sunlit
Object was in full shadow at epoch
Visualization orbit readout
Latitude
Unknown
Longitude
Unknown
Altitude
Unknown
Speed
Unknown
Apparent Right ascension
Unknown
Apparent Declination
Unknown
Sunlit
N/A
Visualization observer readout
Local Sidereal Time
04:46:15
Azimuth
Unknown
Elevation
Unknown
Doppler factor
Unknown
Orbital elements
Apogee altitude
30,261.095 km
Perigee altitude
1,266.779 km
Semi-major axis
22,142.074 km
Eccentricity
0.65473
Inclination
27.9738°
RAAN
334.2376°
Arg. of periapsis
105.9031°
True anomaly
5.21959°
Mean anomaly
0.8241°
Eccentric anomaly
2.38554°
Mean motion
0.65874 °/min
Orbital period
546.5 mins
BSTAR
0
Loading maneuver chart data...
Computing Atmospheric mass density...

Documentation

Showing up to 5 results
|